Regional Weather Roundup
Issued by NWS Portland, ME

Home | Current Version | Previous Version | Text Only | Print | Product List | Glossary On
Versions: 1 2 3 4 5 6 7 8 9 10 11 12 13 14 15 16 17 18 19 20 21 22 23 24 25 26 27 28 29 30 31 32 33 34 35 36 37 38 39 40 41 42 43 44 45 46 47 48 49 50
000
ASUS41 KGYX 261310
RWRGYX
WEATHER ROUNDUP FOR MAINE AND NEW HAMPSHIRE
NATIONAL WEATHER SERVICE GRAY ME
900 AM EDT FRI MAY 26 2017

MEZ002-005-006-010-012-015-018-020-021-024-026-027-029-261400-
MAINE

CITY           SKY/WX    TMP DP  RH WIND       PRES   REMARKS
PORTLAND       CLOUDY    49  47  93 NE14G30   29.52F FOG
SANFORD        LGT RAIN  49  48  97 NE13      29.52F FOG
BAR HARBOR     LGT RAIN  48  46  93 NE12G23   29.59F FOG
WISCASSET      CLOUDY    50  48  93 NE9G16    29.54F FOG
ROCKLAND       LGT RAIN  47  46  97 NE14G20   29.54F FOG
FRYEBURG       CLOUDY    50  48  93 NE5       29.56S
LEWISTONAUBURN LGT RAIN  49  47  93 NE9       29.55S FOG
AUGUSTA        CLOUDY    49  46  90 NE13      29.56R
WATERVILLE     CLOUDY    49  47  93 VRB6      29.55R
BANGOR         CLOUDY    50  48  93 NE9       29.61F
GREENVILLE       N/A     45  44  97 E10       29.62F
MILLINOCKET    HVY RAIN  46  46 100 NE6       29.69S FOG
HOULTON        RAIN      46  45  96 NE8       29.74S FOG
PRESQUE ISLE   LGT RAIN  50  42  74 NE7       29.79R
FRENCHVILLE    CLOUDY    49  34  56 NE13G22   29.78F
CARIBOU        CLOUDY    51  38  60 NE7       29.78R
$$

NHZ002-005-008-009-011-012-014-261400-
NEW HAMPSHIRE

CITY           SKY/WX    TMP DP  RH WIND       PRES   REMARKS
PORTSMOUTH     LGT RAIN  49  48  95 N12       29.48F FOG
ROCHESTER      LGT RAIN  49  46  90 VRB7      29.50F FOG
NASHUA         CLOUDY    50  49  96 NW8       29.52S
MANCHESTER     CLOUDY    51  46  83 N12       29.50F
CONCORD        CLOUDY    51  48  89 NE9       29.53S
LACONIA        CLOUDY    50  46  86 NE13G23   29.53R
PLYMOUTH       CLOUDY    51  48  91 CALM      29.54R
BERLIN         CLOUDY    50  45  83 CALM      29.56F
WHITEFIELD     CLOUDY    50  44  80 E10       29.53S
JAFFREY        LGT RAIN  49  49 100 VRB3      29.54R FOG
KEENE          LGT RAIN  51  50  96 N5        29.56R
LEBANON        LGT RAIN  53  52  96 CALM      29.54R FOG
MT WASHINGTON  FOG       36  36 100 NE13G22     N/A  VSB 1/2
$$

VTZ005-007-008-261400-
VERMONT

CITY           SKY/WX    TMP DP  RH WIND       PRES   REMARKS
ST JOHNSBURY     N/A     50  49  96 MISG      29.52F
MONTPELIER     RAIN      50  50 100 N3        29.58S FOG
BURLINGTON     LGT RAIN  55  54  96 CALM      29.55F
$$

MAZ007-012-024-CTZ003-RIZ002-NYZ038-NYZ072-261400-
SOUTHERN NEW ENGLAND AND NY

CITY           SKY/WX    TMP DP  RH WIND       PRES   REMARKS
BOSTON         LGT RAIN  49  49 100 N10       29.48S FOG
WORCESTER      LGT RAIN  47  44  90 N9        29.52R FOG
NANTUCKET      CLOUDY    55  53  93 S20       29.47F
PROVIDENCE     LGT RAIN  50  50 100 NW9       29.50R FOG
HARTFORD       LGT RAIN  53  52  96 N6        29.54F FOG
ALBANY         LGT RAIN  55  52  89 NW6       29.57R
NEW YORK CITY  CLOUDY    61  56  83 NW10      29.58R
$$

ANZ081-ANZ082-ANZ150-NHZ014-MEZ023>029-261400-
COASTAL MARINE OBSERVATIONS

STATION/POSITION TIME  TEMP    WIND        PRES    WAVE
                       AIR SEA DIR/SP/G            HT/PER
                 (UTC) (F)     (DEG/KT/KT) (MB)    (FT/S)
MOUNT DESERT ROC 1300   44                 1000.7F
MATINICUS ROCK   1200   45      80/ 27/ 28  999.3F
ISLE OF SHOALS   1200   47      30/ 30/ 34  997.1F
JEFFREYS LEDGE   1206      47                N/A     7/ 8
CASHES LEDGE BUO 1150   48 47               998.3    8/ 8
GEORGES BANK BUO 1150   53 46              1002.1    8/ 8
$$

.............KEY..............
   WCI - WIND CHILL
   TC  - TEMPERATURE IN CELSIUS
   VSB - VISIBILITY IN MILES
   HX  - HEAT INDEX
   FAIR- INDICATES FEW OR NO CLOUDS BELOW 12,000 FT, WITH NO
         SIGNIFICANT WEATHER AND/OR OBSTRUCTIONS TO VISIBILITY.





USA.gov is the U.S. government's official web portal to all federal, state and local government web resources and services.